Charlotte, NC

7:32 AM EDT on September 25, 2017 (GMT -0400)
Charlotte-Douglas International

Weather History for KCLT - March, 2012

Change the Weather History Date:

Monday, March 5, 2012

  Actual Average Record
Temperature  
Mean Temperature 43 °F 48 °F  
Max Temperature 53 °F 60 °F 84 °F (1955)
Min Temperature 32 °F 37 °F 12 °F (1960)
Degree Days  
Heating Degree Days 22 17  
Month to date heating degree days 61 87  
Since 1 July heating degree days 2323 2786  
Cooling Degree Days 0 0  
Month to date cooling degree days 3 0  
Year to date cooling degree days 3 0  
Moisture  
Dew Point 21 °F    
Average Humidity 47    
Maximum Humidity 70    
Minimum Humidity 24    
Precipitation  
Precipitation 0.00 in 0.14 in 1.65 in (1984)
Month to date precipitation 1.69 0.66  
Year to date precipitation 5.27 7.39  
Snow  
Snow 0.00 in 0.00 in 1.70 in (1912)
Month to date snowfall 0.0 0.1  
Since 1 July snowfall T 3.8  
Snow Depth 0.00 in    
Sea Level Pressure  
Sea Level Pressure 30.18 in    
Wind  
Wind Speed 11 mph (WNW)    
Max Wind Speed 26 mph    
Max Gust Speed 37 mph    
Visibility 10 miles    
Events      
T = Trace of Precipitation, MM = Missing Value Source: NWS Daily Summary

Daily Weather History Graph

Daily Weather History Graph

Search for Another Location

Airport or City:

Trip Planner

Search our weather history database for the weather conditions in past years. The results will help you decide how hot, cold, wet, or windy it might be!

Date:

Astronomy

Mar. 05, 2012 Rise Set
Actual Time 6:47 AM EST 6:23 PM EST
Civil Twilight 6:22 AM EST 6:48 PM EST
Nautical Twilight 5:52 AM EST 7:18 PM EST
Astronomical Twilight 5:23 AM EST 7:47 PM EST
Moon 3:44 PM EST (3/5) 4:40 AM EST (3/5)
Length of Visible Light 12h 26m
Length of Day
11h 35m
Waxing Gibbous, 91% of the Moon is Illuminated
Mar 5
Waxing Gibbous
Mar 8
Full
Mar 14
Last Quarter
Mar 22
New
Mar 30
First Quarter

Hourly Weather History & Observations

Time (EST) Temp. Windchill Dew Point Humidity Pressure Visibility Wind Dir Wind Speed Gust Speed Precip Events Conditions
12:52 AM 34.0 °F 28.8 °F 24.1 °F 67% 30.01 in 10.0 mi SSW 5.8 mph - N/A   Clear
1:52 AM 36.0 °F 30.3 °F 24.1 °F 62% 30.01 in 10.0 mi SSW 6.9 mph - N/A   Partly Cloudy
2:52 AM 34.0 °F 27.2 °F 24.1 °F 67% 29.98 in 10.0 mi SSE 8.1 mph - N/A   Clear
3:52 AM 35.1 °F 28.6 °F 26.1 °F 70% 29.95 in 10.0 mi South 8.1 mph - N/A   Scattered Clouds
4:52 AM 39.0 °F 31.8 °F 25.0 °F 57% 29.93 in 10.0 mi South 11.5 mph - N/A   Mostly Cloudy
5:52 AM 39.0 °F 34.0 °F 25.0 °F 57% 29.93 in 10.0 mi SW 6.9 mph - N/A   Scattered Clouds
6:52 AM 39.9 °F 32.5 °F 26.1 °F 58% 29.93 in 10.0 mi SW 12.7 mph - N/A   Partly Cloudy
7:52 AM 42.1 °F 37.1 °F 26.1 °F 53% 29.98 in 10.0 mi West 8.1 mph - N/A   Partly Cloudy
8:52 AM 44.1 °F 38.6 °F 27.0 °F 51% 30.02 in 10.0 mi West 10.4 mph 18.4 mph N/A   Mostly Cloudy
9:52 AM 51.1 °F - 26.1 °F 38% 30.07 in 10.0 mi WNW 16.1 mph 31.1 mph N/A   Scattered Clouds
10:52 AM 51.1 °F - 21.9 °F 32% 30.13 in 10.0 mi NW 21.9 mph 34.5 mph N/A   Partly Cloudy
11:52 AM 52.0 °F - 21.9 °F 31% 30.18 in 10.0 mi NW 19.6 mph 31.1 mph N/A   Partly Cloudy
12:52 PM 51.1 °F - 19.0 °F 28% 30.21 in 10.0 mi NW 18.4 mph 33.4 mph N/A   Partly Cloudy
1:52 PM 52.0 °F - 19.9 °F 28% 30.23 in 10.0 mi NW 16.1 mph 25.3 mph N/A   Scattered Clouds
2:52 PM 52.0 °F - 18.0 °F 26% 30.25 in 10.0 mi NNW 17.3 mph 32.2 mph N/A   Partly Cloudy
3:52 PM 51.1 °F - 17.1 °F 26% 30.27 in 10.0 mi NW 11.5 mph 23.0 mph N/A   Partly Cloudy
4:52 PM 50.0 °F - 16.0 °F 26% 30.30 in 10.0 mi NNW 15.0 mph 20.7 mph N/A   Partly Cloudy
5:52 PM 48.0 °F - 16.0 °F 28% 30.34 in 10.0 mi NNW 11.5 mph - N/A   Clear
6:52 PM 44.1 °F 40.8 °F 17.1 °F 34% 30.38 in 10.0 mi NNW 5.8 mph - N/A   Clear
7:52 PM 39.0 °F 34.0 °F 19.0 °F 45% 30.41 in 10.0 mi North 6.9 mph - N/A   Clear
8:52 PM 39.0 °F 34.8 °F 19.0 °F 45% 30.44 in 10.0 mi North 5.8 mph - N/A   Clear
9:52 PM 37.9 °F - 19.0 °F 47% 30.46 in 10.0 mi Calm Calm - N/A   Clear
10:52 PM 39.0 °F 34.0 °F 19.0 °F 45% 30.48 in 10.0 mi NE 6.9 mph - N/A   Clear
11:52 PM 37.0 °F 32.4 °F 18.0 °F 46% 30.51 in 10.0 mi East 5.8 mph - N/A   Clear